Location: Wien
(48.2082°N, 16.3738°E)
Time: 07:29:26
(UTC+02:00)

FO-29 - Visible Passes

Search period start: 16 April 2024 00:00
Search period end: 26 April 2024 00:00
Orbit: 800 x 1321 km, 98.6° (Epoch: 15 April)

Date Brightness Start Highest point End Pass type
(mag) Time Alt. Az. Time Alt. Az. Time Alt. Az.
16 Apr 11.9 01:03:30 10° NE 01:07:42 16° E 01:10:24 13° ESE visible
16 Apr 10.1 02:46:30 10° NNE 02:53:46 71° ESE 02:56:53 40° S visible
16 Apr 10.9 04:32:13 10° N 04:38:19 31° WNW 04:43:21 16° WSW visible
17 Apr 11.1 01:51:48 10° NNE 01:58:22 34° E 02:01:11 27° SE visible
17 Apr 10.1 03:36:32 10° N 03:43:41 62° WNW 03:47:40 30° SW visible
17 Apr 11.6 05:23:14 10° NNW 05:27:29 17° NW 05:31:56 10° W visible
18 Apr 12.0 00:58:32 10° NE 01:02:30 15° E 01:05:30 12° ESE visible
18 Apr 10.2 02:41:18 10° NNE 02:48:40 67° ESE 02:51:58 37° S visible
18 Apr 10.9 04:26:56 10° N 04:33:15 33° WNW 04:38:27 16° WSW visible
19 Apr 11.2 01:46:41 10° NNE 01:53:14 32° E 01:56:17 25° SE visible
19 Apr 10.1 03:31:18 10° N 03:38:36 66° WNW 03:42:46 30° SW visible
19 Apr 11.6 05:17:52 10° N 05:22:26 18° NW 05:27:13 10° W visible
20 Apr 12.1 00:53:38 10° NE 00:57:17 14° E 01:00:34 11° ESE visible
20 Apr 10.3 02:36:08 10° NNE 02:43:33 64° E 02:47:03 35° S visible
20 Apr 10.8 04:21:41 10° N 04:28:11 35° WNW 04:33:32 16° WSW visible
21 Apr 11.3 01:41:34 10° NNE 01:48:05 30° E 01:51:21 23° SE visible
21 Apr 10.1 03:26:06 10° N 03:33:31 70° WNW 03:37:50 29° SW visible
21 Apr 11.5 05:12:31 10° N 05:17:24 19° NW 05:22:28 10° W visible
22 Apr 12.1 00:48:47 10° NE 00:52:04 13° E 00:55:24 10° ESE visible
22 Apr 10.4 02:30:58 10° NNE 02:38:27 61° E 02:42:08 33° SSE visible
22 Apr 10.8 04:16:26 10° N 04:23:08 37° WNW 04:28:36 16° WSW visible
23 Apr 11.4 01:36:28 10° NNE 01:42:56 29° E 01:46:25 21° SE visible
23 Apr 10.1 03:20:54 10° N 03:28:27 73° WNW 03:32:54 29° SSW visible
23 Apr 11.5 05:07:13 10° N 05:12:21 21° NW 05:17:41 10° W visible
24 Apr 12.2 00:44:01 10° ENE 00:46:51 12° E 00:49:42 10° ESE visible
24 Apr 10.5 02:25:49 10° NNE 02:33:20 57° E 02:37:11 31° SSE visible
24 Apr 10.8 04:11:13 10° N 04:18:04 40° WNW 04:23:40 16° WSW visible
25 Apr 11.5 01:31:24 10° NNE 01:37:46 27° E 01:41:28 20° SE visible
25 Apr 10.1 03:15:44 10° NNE 03:23:22 77° WNW 03:27:57 28° SSW visible
25 Apr 11.5 05:01:56 10° N 05:07:19 22° NW 05:12:53 10° W visible
